User: anonymous   Login
Location: Friaudour
(46.0460°N, 1.2873°E)
Time: 08:13:42
(UTC+00:00)
Language:

Abrixas rocket - Orbit

View from above orbital plane
View from above orbital plane
View from above satellite
View from above satellite

Ground track
Ground track

The orbit data is extracted from the following two-line orbital elements,

1 25723U 99022C   20265.52962953 +.00018063 +00000-0 +11024-3 0  9996
2 25723 048.4103 195.2558 0004607 103.3324 256.8144 15.77359099192815
Epoch (UTC): 21 September 2020 12:42:39
Eccentricity: 0.0004607
inclination: 48.4103°
perigee height: 335 km
apogee height: 341 km
right ascension of ascending node: 195.2558°
argument of perigee: 103.3324°
revolutions per day: 15.77359099
mean anomaly at epoch: 256.8144°
orbit number at epoch: 19281

The dashed part of the orbit path shows where the satellite is in the earth's shadow,  

DLR